Location: B?dargowo
(53.3916°N, 14.4413°E)
Time: 04:04:03
(UTC+00:00)

Okean O Rocket - Pass Details

Date: 05 February 2023
Orbit: 620 x 643 km, 98.1° (Epoch: 24 March)

Event Time Altitude Azimuth Distance (km) Brightness Sun altitude
Rises 18:20:56 0° 175° (S) 2,916 4.9 -22.3°
Reaches altitude 10° 18:23:09 10° 179° (S) 2,017 4.1 -22.6°
Maximum altitude 18:27:29 58° 259° (W) 752 2.2 -23.2°
Drops below altitude 10° 18:31:53 10° 338° (NNW) 2,046 4.5 -23.9°
Sets 18:34:08 0° 343° (NNW) 2,963 5.3 -24.2°
